Previsão horária em Abaliget

Hoje, 17 Abril, Sábado

Tempo Temperatura Precipitação Vento Pressão Humidade
00:00 +3°C° 0 mm 1 m/s 749 mmHg 76%
01:00 +3°C° 0 mm 1 m/s 748 mmHg 78%
02:00 +3°C° 0 mm 1 m/s 748 mmHg 79%
03:00 +3°C° 0 mm 1 m/s 748 mmHg 80%
04:00 +3°C° 0 mm 1 m/s 748 mmHg 81%
05:00 +4°C° 0 mm 1 m/s 748 mmHg 79%
06:00 +5°C° 0 mm 1 m/s 748 mmHg 78%
07:00 +5°C° 0 mm 1 m/s 748 mmHg 76%
08:00 +5°C° 0 mm 2 m/s 748 mmHg 72%
09:00 +7°C° 0 mm 2 m/s 748 mmHg 68%
10:00 +8°C° 0 mm 2 m/s 747 mmHg 63%
11:00 +8°C° 0 mm 2 m/s 747 mmHg 62%
12:00 +8°C° 0 mm 2 m/s 747 mmHg 61%
13:00 +9°C° 0 mm 2 m/s 746 mmHg 60%
14:00 +9°C° 0 mm 2 m/s 746 mmHg 62%
15:00 +9°C° 0 mm 2 m/s 746 mmHg 63%
16:00 +9°C° 0 mm 2 m/s 746 mmHg 64%
17:00 +8°C° 0 mm 2 m/s 746 mmHg 67%
18:00 +7°C° 0 mm 2 m/s 746 mmHg 71%
19:00 +7°C° 0 mm 2 m/s 746 mmHg 74%
20:00 +6°C° 0 mm 2 m/s 746 mmHg 75%
21:00 +6°C° 0 mm 2 m/s 746 mmHg 75%
22:00 +6°C° 0 mm 2 m/s 746 mmHg 76%
23:00 +6°C° 0.1 mm 2 m/s 745 mmHg 79%

Amanhã, 18 Abril, Domingo

Tempo Temperatura Precipitação Vento Pressão Humidade
00:00 +6°C° 0.1 mm 1 m/s 745 mmHg 82%
01:00 +6°C° 0.1 mm 1 m/s 745 mmHg 85%
02:00 +6°C° 0.5 mm 1 m/s 745 mmHg 87%
03:00 +6°C° 0.5 mm 1 m/s 745 mmHg 89%
04:00 +6°C° 0.5 mm 1 m/s 745 mmHg 91%
05:00 +5°C° 1.1 mm 2 m/s 745 mmHg 93%
06:00 +5°C° 1.1 mm 2 m/s 745 mmHg 94%
07:00 +5°C° 1.1 mm 2 m/s 745 mmHg 95%
08:00 +4°C° 1 mm 3 m/s 745 mmHg 95%
09:00 +4°C° 1 mm 3 m/s 745 mmHg 94%
10:00 +4°C° 1 mm 4 m/s 745 mmHg 94%
11:00 +4°C° 0.6 mm 3 m/s 745 mmHg 94%
12:00 +5°C° 0.6 mm 3 m/s 745 mmHg 94%
13:00 +5°C° 0.6 mm 3 m/s 745 mmHg 94%
14:00 +6°C° 0.4 mm 2 m/s 745 mmHg 94%
15:00 +6°C° 0.4 mm 2 m/s 745 mmHg 94%
16:00 +5°C° 0.4 mm 2 m/s 745 mmHg 94%
17:00 +6°C° 0.4 mm 1 m/s 745 mmHg 95%
18:00 +6°C° 0.4 mm 1 m/s 745 mmHg 95%
19:00 +6°C° 0.4 mm 1 m/s 745 mmHg 96%
20:00 +6°C° 0.1 mm 1 m/s 745 mmHg 96%
21:00 +6°C° 0.1 mm 1 m/s 745 mmHg 96%
22:00 +6°C° 0.1 mm 1 m/s 745 mmHg 96%
23:00 +6°C° 0.1 mm 1 m/s 745 mmHg 96%

Depois de amanhã, 19 Abril, Segunda-feira

Tempo Temperatura Precipitação Vento Pressão Humidade
00:00 +6°C° 0.1 mm 1 m/s 745 mmHg 96%
01:00 +6°C° 0.1 mm 1 m/s 745 mmHg 96%
02:00 +6°C° 0.1 mm 1 m/s 744 mmHg 96%
03:00 +6°C° 0.1 mm 1 m/s 744 mmHg 96%
04:00 +6°C° 0.1 mm 1 m/s 744 mmHg 96%
05:00 +6°C° 0.1 mm 1 m/s 744 mmHg 96%
06:00 +6°C° 0.1 mm 1 m/s 744 mmHg 95%
07:00 +5°C° 0.1 mm 2 m/s 744 mmHg 94%
08:00 +6°C° 0 mm 2 m/s 744 mmHg 92%
09:00 +7°C° 0 mm 2 m/s 744 mmHg 90%
10:00 +7°C° 0 mm 2 m/s 744 mmHg 87%
11:00 +7°C° 0.1 mm 2 m/s 744 mmHg 87%
12:00 +7°C° 0.1 mm 2 m/s 744 mmHg 86%
13:00 +8°C° 0.1 mm 2 m/s 744 mmHg 85%
14:00 +8°C° 0 mm 2 m/s 744 mmHg 86%
15:00 +7°C° 0 mm 2 m/s 743 mmHg 87%
16:00 +7°C° 0 mm 2 m/s 743 mmHg 88%
17:00 +7°C° 0 mm 2 m/s 743 mmHg 90%
18:00 +7°C° 0 mm 2 m/s 743 mmHg 92%
19:00 +6°C° 0 mm 2 m/s 744 mmHg 94%
20:00 +6°C° 0 mm 2 m/s 744 mmHg 94%
21:00 +6°C° 0 mm 2 m/s 744 mmHg 95%
22:00 +6°C° 0 mm 2 m/s 744 mmHg 95%
23:00 +6°C° 0 mm 2 m/s 744 mmHg 96%

20 Abril, Terça-feira

Tempo Temperatura Precipitação Vento Pressão Humidade
00:00 +6°C° 0 mm 2 m/s 744 mmHg 96%
01:00 +6°C° 0 mm 2 m/s 744 mmHg 96%
02:00 +6°C° 0 mm 2 m/s 743 mmHg 96%
03:00 +6°C° 0 mm 2 m/s 743 mmHg 96%
04:00 +6°C° 0 mm 2 m/s 743 mmHg 96%
05:00 +6°C° 0.1 mm 2 m/s 743 mmHg 96%
06:00 +6°C° 0.1 mm 2 m/s 744 mmHg 95%
07:00 +6°C° 0.1 mm 2 m/s 744 mmHg 95%
08:00 +6°C° 0.1 mm 2 m/s 744 mmHg 93%
09:00 +7°C° 0.1 mm 2 m/s 744 mmHg 90%
10:00 +7°C° 0.1 mm 3 m/s 744 mmHg 88%
11:00 +8°C° 0.1 mm 3 m/s 744 mmHg 84%
12:00 +9°C° 0.1 mm 3 m/s 744 mmHg 81%
13:00 +10°C° 0.1 mm 2 m/s 744 mmHg 77%
14:00 +10°C° 0.1 mm 2 m/s 744 mmHg 73%
15:00 +12°C° 0.1 mm 2 m/s 743 mmHg 70%
16:00 +13°C° 0.1 mm 2 m/s 743 mmHg 66%
17:00 +10°C° 0 mm 2 m/s 743 mmHg 72%
18:00 +10°C° 0 mm 1 m/s 744 mmHg 77%
19:00 +9°C° 0 mm 1 m/s 744 mmHg 83%
20:00 +8°C° 0 mm 1 m/s 744 mmHg 84%
21:00 +7°C° 0 mm 0 m/s 744 mmHg 86%
22:00 +6°C° 0 mm 0 m/s 744 mmHg 88%
23:00 +6°C° 0 mm 0 m/s 744 mmHg 88%

21 Abril, Quarta-feira

Tempo Temperatura Precipitação Vento Pressão Humidade
00:00 +6°C° 0 mm 0 m/s 744 mmHg 89%
01:00 +5°C° 0 mm 0 m/s 744 mmHg 89%
02:00 +6°C° 0 mm 1 m/s 744 mmHg 90%
03:00 +6°C° 0 mm 1 m/s 744 mmHg 91%
04:00 +6°C° 0 mm 1 m/s 744 mmHg 91%
05:00 +6°C° 0 mm 2 m/s 744 mmHg 87%
06:00 +7°C° 0 mm 2 m/s 744 mmHg 83%
07:00 +8°C° 0 mm 2 m/s 745 mmHg 79%
08:00 +10°C° 0 mm 3 m/s 745 mmHg 73%
09:00 +11°C° 0 mm 3 m/s 745 mmHg 66%
10:00 +13°C° 0 mm 4 m/s 745 mmHg 60%
11:00 +14°C° 0 mm 4 m/s 744 mmHg 58%
12:00 +14°C° 0 mm 4 m/s 744 mmHg 57%
13:00 +15°C° 0 mm 4 m/s 744 mmHg 55%
14:00 +15°C° 0 mm 4 m/s 744 mmHg 56%
15:00 +16°C° 0 mm 3 m/s 744 mmHg 58%
16:00 +16°C° 0 mm 3 m/s 744 mmHg 60%
17:00 +15°C° 0 mm 2 m/s 744 mmHg 65%
18:00 +13°C° 0 mm 2 m/s 744 mmHg 71%
19:00 +11°C° 0 mm 1 m/s 744 mmHg 76%
20:00 +10°C° 0.1 mm 2 m/s 744 mmHg 79%
21:00 +10°C° 0.1 mm 2 m/s 744 mmHg 83%
22:00 +9°C° 0.1 mm 2 m/s 745 mmHg 86%
23:00 +9°C° 0.1 mm 2 m/s 745 mmHg 87%

22 Abril, Quinta-feira

Tempo Temperatura Precipitação Vento Pressão Humidade
00:00 +9°C° 0.1 mm 2 m/s 744 mmHg 88%
01:00 +8°C° 0.1 mm 2 m/s 744 mmHg 89%
02:00 +8°C° 0 mm 2 m/s 744 mmHg 89%
03:00 +7°C° 0 mm 2 m/s 744 mmHg 90%
04:00 +8°C° 0 mm 1 m/s 744 mmHg 90%
05:00 +9°C° 0 mm 1 m/s 745 mmHg 88%
06:00 +10°C° 0 mm 1 m/s 745 mmHg 85%
07:00 +10°C° 0 mm 2 m/s 746 mmHg 82%
08:00 +12°C° 0 mm 2 m/s 746 mmHg 78%
09:00 +13°C° 0 mm 2 m/s 746 mmHg 73%
10:00 +13°C° 0 mm 3 m/s 746 mmHg 68%
11:00 +13°C° 0.2 mm 3 m/s 746 mmHg 68%
12:00 +13°C° 0.2 mm 4 m/s 746 mmHg 68%
13:00 +13°C° 0.2 mm 4 m/s 745 mmHg 67%
14:00 +12°C° 0.4 mm 5 m/s 745 mmHg 70%
15:00 +10°C° 0.4 mm 5 m/s 745 mmHg 72%
16:00 +9°C° 0.4 mm 5 m/s 745 mmHg 75%
17:00 +9°C° 1.2 mm 5 m/s 746 mmHg 77%
18:00 +8°C° 1.2 mm 6 m/s 746 mmHg 80%
19:00 +7°C° 1.2 mm 6 m/s 746 mmHg 82%
20:00 +5°C° 1.7 mm 6 m/s 747 mmHg 84%
21:00 +4°C° 1.7 mm 6 m/s 747 mmHg 86%
22:00 +4°C° 1.7 mm 6 m/s 747 mmHg 88%
23:00 +3°C° 0.8 mm 6 m/s 748 mmHg 88%
Mostrar mais

Necessitamos do seu Consentimento

A Meteoprog e os seus Fornecedores de Serviços podem armazenar e aceder a dados pessoais como cookies, identificadores do dispositivo ou outras tecnologias semelhantes existentes no seu dispositivo e processar estes dados para personalizar conteúdos e anúncios, assim como funcionalidades nas redes sociais e análise de tráfego.

  • Armazenar e/ou aceder a informações no seu dispositivo

    Os cookies, identificadores do dispositivo ou outras informações podem ser armazenados ou acedidos no seu dispositivo, para os fins acima indicados.

  • Anúncios e conteúdos personalizados, medição de anúncios e conteúdos, dados sobre o público-alvo e desenvolvimento de produtos

    Os anúncios e os conteúdos podem ser personalizados com base num perfil. Podem ser adicionados dados adicionais para uma maior personalização dos anúncios e dos conteúdos. A eficácia dos anúncios e dos conteúdos pode ser medida. Podem ser obtidas informações sobre o público que visualizou os anúncios e os conteúdos. Estes dados podem ser usados para desenvolver ou melhorar sistemas, softwares ou a experiência do utilizador.

Ao clicar em "Eu concordo”, permitirá o uso de cookies, identificadores do dispositivo e web beacons mencionados ou outras tecnologias semelhantes. As configurações do navegador do seu dispositivo podem ser alteradas.

Para certos fins, podem ser invocados interesses legítimos ao invés de consentimento. Pode ler mais informação sobre este assunto na nossa Política de Privacidade e Cookies.